When you browse on this site, cookies collect data to enhance your experience and personalize the content and advertising you see.
Visit our Privacy Policy to learn more. By continuing to use the site, you agree to this use of cookies and data.
  • In Deutschland
  • Länderverzeichnis
  • Für 7 Tage
  • Wassertemperatur
  • Satellitenkarten
  • Wetterkarte
  • Widgets
  • user-avatar
    Anmelden

    Stündliche Wetter Canberra

    Heute, 16 Januar, Mittwoch

    Zeit Temperatur Niederschläge Wind Luftdruck Luftfeuchtigkeit
    00:00 +27°C° 0 mm 1 m/S 707 mmHg 30%
    01:00 +26°C° 0 mm 1 m/S 707 mmHg 33%
    02:00 +26°C° 0 mm 1 m/S 707 mmHg 36%
    03:00 +25°C° 0 mm 1 m/S 706 mmHg 40%
    04:00 +25°C° 0 mm 2 m/S 706 mmHg 45%
    05:00 +26°C° 0 mm 1 m/S 707 mmHg 43%
    06:00 +28°C° 0 mm 1 m/S 707 mmHg 41%
    07:00 +29°C° 0 mm 1 m/S 708 mmHg 39%
    08:00 +33°C° 0 mm 1 m/S 708 mmHg 32%
    09:00 +35°C° 0 mm 0 m/S 708 mmHg 24%
    10:00 +39°C° 0 mm 0 m/S 709 mmHg 16%
    11:00 +40°C° 0 mm 0 m/S 709 mmHg 14%
    12:00 +42°C° 0 mm 0 m/S 709 mmHg 13%
    13:00 +46°C° 0 mm 1 m/S 708 mmHg 11%
    14:00 +44°C° 0 mm 1 m/S 708 mmHg 13%
    15:00 +42°C° 0 mm 1 m/S 707 mmHg 15%
    16:00 +40°C° 0 mm 2 m/S 706 mmHg 18%
    17:00 +38°C° 0 mm 2 m/S 707 mmHg 22%
    18:00 +37°C° 0 mm 2 m/S 707 mmHg 26%
    19:00 +35°C° 0 mm 3 m/S 707 mmHg 29%
    20:00 +33°C° 0 mm 3 m/S 707 mmHg 36%
    21:00 +30°C° 0 mm 2 m/S 707 mmHg 42%
    22:00 +29°C° 0 mm 2 m/S 708 mmHg 48%
    23:00 +28°C° 0 mm 3 m/S 708 mmHg 51%

    Morgen, 17 Januar, Donnerstag

    Zeit Temperatur Niederschläge Wind Luftdruck Luftfeuchtigkeit
    00:00 +27°C° 0 mm 3 m/S 708 mmHg 54%
    01:00 +26°C° 0 mm 3 m/S 708 mmHg 57%
    02:00 +25°C° 0 mm 3 m/S 707 mmHg 63%
    03:00 +24°C° 0 mm 2 m/S 707 mmHg 69%
    04:00 +23°C° 0 mm 2 m/S 707 mmHg 75%
    05:00 +24°C° 0 mm 2 m/S 707 mmHg 71%
    06:00 +25°C° 0 mm 1 m/S 707 mmHg 67%
    07:00 +26°C° 0 mm 1 m/S 707 mmHg 63%
    08:00 +29°C° 0 mm 2 m/S 707 mmHg 51%
    09:00 +34°C° 0 mm 3 m/S 707 mmHg 40%
    10:00 +37°C° 0 mm 3 m/S 708 mmHg 29%
    11:00 +39°C° 0 mm 3 m/S 707 mmHg 25%
    12:00 +42°C° 0 mm 4 m/S 707 mmHg 20%
    13:00 +44°C° 0 mm 4 m/S 707 mmHg 16%
    14:00 +44°C° 0 mm 4 m/S 706 mmHg 15%
    15:00 +44°C° 0 mm 4 m/S 706 mmHg 14%
    16:00 +44°C° 0 mm 4 m/S 705 mmHg 14%
    17:00 +42°C° 0 mm 3 m/S 706 mmHg 20%
    18:00 +38°C° 0 mm 3 m/S 706 mmHg 27%
    19:00 +35°C° 0 mm 3 m/S 706 mmHg 34%
    20:00 +33°C° 0 mm 4 m/S 706 mmHg 40%
    21:00 +30°C° 0 mm 4 m/S 707 mmHg 46%
    22:00 +28°C° 0 mm 4 m/S 707 mmHg 52%
    23:00 +27°C° 0 mm 4 m/S 707 mmHg 56%

    übermorgen, 18 Januar, Freitag

    Zeit Temperatur Niederschläge Wind Luftdruck Luftfeuchtigkeit
    00:00 +26°C° 0 mm 3 m/S 707 mmHg 59%
    01:00 +25°C° 0 mm 3 m/S 707 mmHg 62%
    02:00 +25°C° 0 mm 2 m/S 706 mmHg 66%
    03:00 +24°C° 0 mm 2 m/S 706 mmHg 69%
    04:00 +24°C° 0 mm 1 m/S 706 mmHg 73%
    05:00 +24°C° 0.2 mm 1 m/S 706 mmHg 71%
    06:00 +25°C° 0.2 mm 1 m/S 706 mmHg 70%
    07:00 +26°C° 0.2 mm 2 m/S 706 mmHg 68%
    08:00 +29°C° 0 mm 3 m/S 706 mmHg 55%
    09:00 +34°C° 0 mm 4 m/S 706 mmHg 42%
    10:00 +39°C° 0 mm 5 m/S 707 mmHg 30%
    11:00 +41°C° 0 mm 6 m/S 706 mmHg 25%
    12:00 +42°C° 0 mm 6 m/S 706 mmHg 21%
    13:00 +45°C° 0 mm 7 m/S 705 mmHg 16%
    14:00 +45°C° 0 mm 6 m/S 705 mmHg 16%
    15:00 +45°C° 0 mm 6 m/S 705 mmHg 16%
    16:00 +44°C° 0 mm 6 m/S 705 mmHg 16%
    17:00 +40°C° 0.4 mm 5 m/S 705 mmHg 24%
    18:00 +36°C° 0.4 mm 3 m/S 705 mmHg 32%
    19:00 +31°C° 0.4 mm 2 m/S 705 mmHg 40%
    20:00 +30°C° 0.9 mm 2 m/S 706 mmHg 49%
    21:00 +28°C° 0.9 mm 2 m/S 707 mmHg 58%
    22:00 +26°C° 0.9 mm 1 m/S 708 mmHg 68%
    23:00 +26°C° 0.2 mm 1 m/S 708 mmHg 70%

    19 Januar, Samstag

    Zeit Temperatur Niederschläge Wind Luftdruck Luftfeuchtigkeit
    00:00 +26°C° 0.2 mm 1 m/S 708 mmHg 72%
    01:00 +25°C° 0.2 mm 1 m/S 708 mmHg 75%
    02:00 +25°C° 0.1 mm 1 m/S 708 mmHg 74%
    03:00 +25°C° 0.1 mm 1 m/S 708 mmHg 74%
    04:00 +24°C° 0.1 mm 1 m/S 708 mmHg 74%
    05:00 +25°C° 0 mm 1 m/S 708 mmHg 73%
    06:00 +25°C° 0 mm 1 m/S 709 mmHg 71%
    07:00 +25°C° 0 mm 1 m/S 709 mmHg 70%
    08:00 +27°C° 0 mm 2 m/S 710 mmHg 63%
    09:00 +29°C° 0 mm 2 m/S 711 mmHg 55%
    10:00 +31°C° 0 mm 2 m/S 711 mmHg 47%
    11:00 +32°C° 0 mm 2 m/S 711 mmHg 44%
    12:00 +34°C° 0 mm 2 m/S 712 mmHg 41%
    13:00 +35°C° 0 mm 3 m/S 712 mmHg 38%
    14:00 +34°C° 0 mm 3 m/S 711 mmHg 43%
    15:00 +32°C° 0 mm 4 m/S 711 mmHg 47%
    16:00 +30°C° 0 mm 5 m/S 711 mmHg 52%
    17:00 +27°C° 0.3 mm 5 m/S 711 mmHg 61%
    18:00 +23°C° 0.3 mm 5 m/S 711 mmHg 71%
    19:00 +20°C° 0.3 mm 5 m/S 712 mmHg 81%
    20:00 +20°C° 0.3 mm 4 m/S 712 mmHg 83%
    21:00 +20°C° 0.3 mm 4 m/S 713 mmHg 84%
    22:00 +19°C° 0.3 mm 4 m/S 713 mmHg 86%
    23:00 +19°C° 0.1 mm 3 m/S 713 mmHg 86%

    20 Januar, Sonntag

    Zeit Temperatur Niederschläge Wind Luftdruck Luftfeuchtigkeit
    00:00 +19°C° 0.1 mm 3 m/S 713 mmHg 86%
    01:00 +19°C° 0.1 mm 2 m/S 713 mmHg 87%
    02:00 +19°C° 0.5 mm 2 m/S 713 mmHg 88%
    03:00 +18°C° 0.5 mm 2 m/S 712 mmHg 90%
    04:00 +19°C° 0.5 mm 1 m/S 712 mmHg 92%
    05:00 +19°C° 0.7 mm 1 m/S 712 mmHg 91%
    06:00 +19°C° 0.7 mm 2 m/S 713 mmHg 90%
    07:00 +19°C° 0.7 mm 2 m/S 713 mmHg 90%
    08:00 +21°C° 0.2 mm 1 m/S 713 mmHg 85%
    09:00 +22°C° 0.2 mm 1 m/S 713 mmHg 81%
    10:00 +23°C° 0.2 mm 1 m/S 713 mmHg 77%
    11:00 +26°C° 0 mm 2 m/S 713 mmHg 67%
    12:00 +28°C° 0 mm 2 m/S 713 mmHg 57%
    13:00 +31°C° 0 mm 2 m/S 713 mmHg 48%
    14:00 +31°C° 0 mm 2 m/S 712 mmHg 48%
    15:00 +31°C° 0 mm 3 m/S 712 mmHg 47%
    16:00 +31°C° 0 mm 3 m/S 712 mmHg 47%
    17:00 +30°C° 0 mm 3 m/S 712 mmHg 54%
    18:00 +28°C° 0 mm 3 m/S 712 mmHg 62%
    19:00 +27°C° 0 mm 3 m/S 712 mmHg 69%
    20:00 +25°C° 0.2 mm 3 m/S 712 mmHg 76%
    21:00 +22°C° 0.2 mm 3 m/S 712 mmHg 83%
    22:00 +21°C° 0.2 mm 2 m/S 712 mmHg 91%
    23:00 +21°C° 0.9 mm 2 m/S 712 mmHg 91%

    21 Januar, Montag

    Zeit Temperatur Niederschläge Wind Luftdruck Luftfeuchtigkeit
    00:00 +22°C° 0.9 mm 1 m/S 712 mmHg 92%
    01:00 +19°C° 0.9 mm 0 m/S 712 mmHg 92%
    02:00 +19°C° 0.4 mm 0 m/S 712 mmHg 93%
    03:00 +19°C° 0.4 mm 0 m/S 712 mmHg 94%
    04:00 +21°C° 0.4 mm 1 m/S 711 mmHg 94%
    05:00 +22°C° 0.1 mm 1 m/S 711 mmHg 92%
    06:00 +22°C° 0.1 mm 1 m/S 711 mmHg 89%
    07:00 +23°C° 0.1 mm 1 m/S 711 mmHg 87%
    08:00 +25°C° 0 mm 2 m/S 712 mmHg 74%
    09:00 +28°C° 0 mm 2 m/S 712 mmHg 61%
    10:00 +31°C° 0 mm 2 m/S 713 mmHg 48%
    11:00 +33°C° 0 mm 3 m/S 712 mmHg 45%
    12:00 +34°C° 0 mm 4 m/S 712 mmHg 42%
    13:00 +35°C° 0 mm 4 m/S 712 mmHg 39%
    14:00 +33°C° 0.4 mm 3 m/S 711 mmHg 48%
    15:00 +29°C° 0.4 mm 2 m/S 711 mmHg 57%
    16:00 +27°C° 0.4 mm 1 m/S 710 mmHg 66%
    17:00 +27°C° 0 mm 1 m/S 710 mmHg 67%
    18:00 +26°C° 0 mm 1 m/S 710 mmHg 69%
    19:00 +26°C° 0 mm 1 m/S 711 mmHg 70%
    20:00 +25°C° 0.4 mm 1 m/S 711 mmHg 75%
    21:00 +24°C° 0.4 mm 1 m/S 711 mmHg 81%
    22:00 +23°C° 0.4 mm 2 m/S 711 mmHg 87%
    23:00 +23°C° 0 mm 1 m/S 711 mmHg 86%
    Mehr zeigen